Probability
0 0 0 0 0 0 0 0 0 0 0 0 0 0 0 0 0 0 0 1 1 1 0 0 0 0 0 0 0 0 0 0 0 0 0 0 0 0 0 0 0 0 0
0 0 0 0 0 0 0 0 0 0 0 0 0 0 0 0 0 0 0 0 0 0 0 0 0 0 0 0 0 0 0 0 0 0 0 0 0 0 0 0 0 0 0
0 0 0 0 0 0 0 0 0 0 0 0 0 0 0 0 0 0 0 0 0 0 0 0 0 0 0 0 0 0 0 0 0 0 0 0 0 0 0 0 0 0 0
0 0 0 0 0 0 0 0 0 0 0 0 0 0 0 0 0 0 0 0 0 0 0 0 0 0 0 0 0 0 0 0 0 0 0 0 0 0 0 0 0 0 0
0 0 0 0 0 0 0 0 0 0 0 0 0 0 0 0 0 0 0 0 0 0 0 0 0 0 0 0 0 0 0 0 0 0 0 0 0 0 0 0 0 0 0
0 0 0 0 0 0 0 0 0 0 0 0 0 0 0 0 0 0 0 0 0 0 0 0 0 0 0 0 0 0 0 0 0 0 0 0 0 0 0 0 0 0 0
0 0 0 0 0 0 0 0 0 0 0 0 0 0 0 0 0 0 0 0 0 0 0 0 0 0 0 0 0 0 0 0 0 0 0 0 0 0 0 0 0 0 0
0 0 0 0 0 0 0 0 0 0 0 0 0 0 0 0 0 0 0 0 0 0 0 0 0 0 0 0 0 0 0 0 0 0 0 0 0 0 0 0 0 0 0
0 0 0 0 0 0 0 0 0 0 0 0 0 0 0 0 0 0 0 0 0 0 0 0 0 0 0 0 0 0 0 0 0 0 0 0 0 0 0 0 0 0 0
0 0 0 0 0 0 0 0 0 0 0 0 0 0 0 0 0 0 0 0 0 0 0 0 0 0 0 0 0 0 0 0 0 0 0 0 0 0 0 0 0 0 0
0 0 0 0 0 0 0 0 0 0 0 0 0 0 0 0 0 0 0 0 0 0 0 0 0 0 0 0 0 0 0 0 0 0 0 0 0 0 0 0 0 0 0
0 0 0 0 0 0 0 0 0 0 0 0 0 0 0 0 0 0 0 0 0 0 0 0 0 0 0 0 0 0 0 0 0 0 0 0 0 0 0 0 0 0 0
0 0 0 0 0 0 0 0 0 0 0 0 0 0 0 0 0 0 0 0 0 0 0 0 0 0 0 0 0 0 0 0 0 0 0 0 0 0 0 0 0 0 0
0 0 0 0 0 0 0 0 0 0 0 0 0 0 0 0 0 0 0 0 0 0 0 0 0 0 0 0 0 0 0 0 0 0 0 0 0 0 0 0 0 0 0
0 0 0 0 0 0 0 0 0 0 0 0 0 0 0 0 0 0 0 0 0 0 0 0 0 0 0 0 0 0 0 0 0 0 0 0 0 0 0 0 0 0 0
0 0 0 0 0 0 0 0 0 0 0 0 0 0 0 0 0 0 0 0 0 0 0 0 0 0 0 0 0 0 0 0 0 0 0 0 0 0 0 0 0 0 0
0 0 0 0 0 0 0 0 0 0 0 0 0 0 0 0 0 0 0 0 0 0 0 0 0 0 0 0 0 0 0 0 0 0 0 0 0 0 0 0 0 0 0
0 0 0 0 0 0 0 0 0 0 0 0 0 0 0 0 0 0 0 0 0 0 0 0 0 0 0 0 0 0 0 0 0 0 0 0 0 0 0 0 0 0 0
0 0 0 0 0 0 0 0 0 0 0 0 0 0 0 0 0 0 0 0 0 0 0 0 0 0 0 0 0 0 0 0 0 0 0 0 0 0 0 0 0 0 0
0 0 0 0 0 0 0 0 0 0 0 0 0 0 0 0 0 0 0 0 0 0 0 0 0 0 0 0 0 0 0 0 0 0 0 0 0 0 0 0 0 0 0
0 0 0 0 0 0 0 0 0 0 0 0 0 0 0 0 0 0 0 0 0 0 0 0 0 0 0 0 0 0 0 0 0 0 0 0 0 0 0 0 0 0 0
0 0 0 0 0 0 0 0 0 0 0 0 0 0 0 0 0 0 0 0 0 0 0 0 0 0 0 0 0 0 0 0 0 0 0 0 0 0 0 0 0 0 0
0 0 0 0 0 0 0 0 0 0 0 0 0 0 0 0 0 0 0 0 0 0 0 0 0 0 0 0 0 0 0 0 0 0 0 0 0 0 0 0 0 0 0
0 0 0 0 0 0 0 0 0 0 0 0 0 0 0 0 0 0 0 0 0 0 0 0 0 0 0 0 0 0 0 0 0 0 0 0 0 0 0 0 0 0 0
0 0 0 0 0 0 0 0 0 0 0 0 0 0 0 0 0 0 0 0 0 0 0 0 0 0 0 0 0 0 0 0 0 0 0 0 0 0 0 0 0 0 0
0 0 0 0 0 0 0 0 0 0 0 0 0 0 0 0 0 0 0 0 0 0 0 0 0 0 0 0 0 0 0 0 0 0 0 0 0 0 0 0 0 0 0
Wind_Speed
4 3 4 4 3 3 3 3 2 1 2 2 1 1 0 0 1 1 1 2 2 3 2 2 2 3 2 3 4 3 4 4 4 3 4 3 3 3 3 3 3 5 5
3 3 4 4 4 4 4 3 3 2 2 2 2 2 2 1 1 0 1 1 2 2 2 2 2 2 2 3 4 3 2 3 4 2 2 3 4 4 4 3 4 5 4
6 5 5 5 4 4 5 4 4 3 3 3 2 2 1 1 1 1 1 1 1 1 1 2 2 2 2 2 3 3 2 2 2 2 1 1 2 4 3 3 3 4 4
4 4 5 5 5 5 4 4 3 3 3 3 3 3 2 2 2 1 1 1 1 1 1 1 1 1 1 2 2 2 1 1 2 2 1 0 1 2 4 3 3 4 4
4 5 6 6 5 4 3 3 3 3 3 3 4 3 3 2 1 1 1 1 1 1 1 1 1 1 1 1 1 2 1 1 0 1 1 1 1 1 2 4 5 4 3
3 3 3 3 2 2 2 2 3 3 3 3 4 4 5 4 2 2 2 2 1 1 1 1 1 1 1 1 1 1 1 1 1 1 1 1 1 1 1 3 4 4 4
3 2 2 3 3 3 3 3 3 4 4 4 4 5 5 5 5 4 3 3 2 2 2 1 1 1 1 1 1 1 1 1 1 1 1 1 1 1 2 2 3 4 4
2 3 3 3 3 3 3 3 4 4 3 4 4 4 4 3 3 4 3 3 3 3 3 2 2 2 2 1 1 1 1 1 1 1 1 1 1 1 1 1 2 4 3
2 2 2 2 2 3 3 4 4 4 3 4 3 3 4 4 4 4 4 3 3 3 3 3 3 2 2 2 1 1 1 1 1 1 1 1 1 1 1 1 1 2 3
2 2 2 2 2 3 3 2 3 4 4 3 3 3 4 4 4 4 4 4 4 4 3 3 3 3 3 2 2 2 2 1 2 1 1 2 1 1 1 1 1 1 2
3 3 2 2 2 1 1 2 3 3 3 4 3 3 3 3 3 4 5 5 4 4 4 4 4 4 3 3 3 3 2 2 2 2 2 3 2 1 1 1 1 1 2
3 2 2 1 1 2 2 2 3 3 4 4 3 4 3 3 3 4 5 4 4 4 5 4 4 4 4 3 4 4 3 3 3 3 2 3 2 2 2 1 2 2 2
2 1 1 1 2 2 2 3 3 4 4 3 3 3 4 4 5 5 5 4 4 4 4 4 5 5 4 4 4 4 4 4 4 4 3 3 2 3 2 2 2 2 3
2 2 2 2 3 3 3 3 4 4 3 3 3 4 5 5 5 5 4 5 4 5 5 5 5 5 5 5 5 4 4 4 4 4 4 4 4 4 4 3 3 3 3
2 1 2 2 3 3 4 4 4 4 3 3 4 5 5 5 4 4 5 5 5 6 5 5 5 5 5 5 5 5 5 5 4 4 4 5 6 7 5 4 3 3 3
3 2 3 3 4 4 5 4 5 5 3 4 5 5 4 4 5 5 5 4 5 5 4 5 6 6 5 9 10 7 5 5 5 5 5 5 6 7 9 9 7 5 4
3 4 4 5 5 5 4 5 5 4 4 4 5 4 4 5 5 5 4 5 5 5 5 6 6 6 8 12 11 11 5 5 5 5 5 4 5 6 4 6 7 7 8
3 4 4 5 5 4 4 4 4 4 4 4 5 5 4 5 5 5 5 6 5 5 5 6 6 6 8 12 11 11 6 5 5 5 5 5 5 5 5 4 4 4 5
4 4 5 5 4 4 4 4 4 4 4 5 5 5 5 5 5 5 6 5 5 5 5 5 6 6 8 11 11 10 3 4 5 5 5 5 6 9 10 5 5 5 5
3 4 4 3 4 4 3 3 4 4 5 6 6 6 5 5 6 7 6 5 5 6 5 5 6 7 7 10 11 10 3 4 4 4 5 9 9 10 10 6 5 6 5
4 3 3 3 4 4 3 4 5 6 6 6 6 5 5 5 6 6 5 4 5 4 5 6 6 6 7 9 11 11 4 5 5 4 4 5 10 11 11 9 5 8 6
4 4 3 5 5 4 3 5 6 6 5 5 5 6 6 5 5 5 5 4 4 5 5 5 5 4 6 8 9 12 10 8 5 5 4 5 10 10 10 8 8 10 7
4 4 4 5 5 4 4 6 7 6 5 5 6 6 6 5 5 5 5 4 4 4 5 4 5 5 4 6 11 12 12 12 7 5 8 9 10 9 7 9 10 7 3
4 4 4 5 6 6 5 6 7 5 5 6 7 6 5 6 5 4 4 4 5 5 5 5 5 5 4 4 4 5 6 9 7 5 7 10 10 7 7 6 5 3 3
4 4 5 6 7 7 7 6 6 5 5 6 6 6 5 5 5 5 5 6 6 7 7 6 5 5 5 7 9 6 5 4 5 3 2 2 3 3 3 3 3 3 3
5 5 6 6 7 7 8 7 6 5 5 6 6 5 5 5 5 5 6 8 10 13 14 13 10 8 10 11 11 11 12 11 11 6 4 4 5 5 5 4 4 4 4
Wind_Direction
209 180 168 156 145 144 145 152 152 158 126 111 108 103 96 24 25 13 28 23 9 14 30 20 10 10 15 1 352 347 350 351 348 351 342 340 359 26 23 21 30 24 19
194 183 175 171 170 171 175 173 177 177 170 161 160 164 170 186 211 303 8 13 11 7 25 25 13 6 9 6 3 3 357 350 5 8 349 342 342 2 11 20 29 17 12
196 193 184 190 188 194 197 191 193 191 189 170 138 117 83 32 2 332 325 335 350 360 11 16 17 7 17 3 354 3 13 345 343 18 34 4 311 319 324 4 18 11 9
193 192 190 195 202 212 208 199 196 197 194 171 161 169 176 200 225 225 251 301 328 339 350 13 17 6 6 358 347 9 357 2 335 340 360 284 261 304 314 321 352 358 356
192 196 198 199 205 206 207 210 202 207 200 182 179 179 193 209 225 242 275 295 304 307 322 351 11 354 344 334 341 354 4 10 332 317 314 312 311 297 273 301 323 333 330
188 194 202 191 204 210 212 216 209 221 211 196 192 189 200 209 217 240 252 270 279 288 298 302 332 317 305 301 309 327 354 346 332 313 296 274 277 286 273 281 303 309 307
165 185 200 203 213 217 221 219 217 230 222 209 207 204 208 207 214 227 232 240 251 258 264 267 269 267 266 272 282 294 304 301 293 284 278 279 269 262 258 270 290 297 297
190 201 210 213 219 230 229 225 228 238 231 220 222 217 214 213 224 226 224 229 233 239 239 240 252 258 257 262 263 260 259 252 256 290 287 278 285 277 258 257 284 299 298
222 232 243 235 235 241 238 229 232 243 243 236 233 231 224 220 228 231 225 232 235 235 229 230 237 246 244 242 232 240 257 250 250 258 264 262 275 290 289 273 253 264 291
250 261 255 247 244 243 248 252 239 242 248 244 237 237 234 230 230 227 229 232 236 234 228 231 232 235 236 230 218 238 247 244 258 252 257 265 263 271 280 280 277 254 251
234 246 252 257 266 283 279 269 263 260 260 251 244 248 248 239 234 233 236 233 234 228 228 229 229 231 233 227 220 231 233 236 254 259 251 260 262 261 272 278 277 269 253
236 241 252 271 283 288 289 280 272 266 261 254 247 248 250 243 240 244 243 233 233 231 226 224 225 228 228 222 219 230 231 229 240 248 247 259 262 264 262 263 266 264 263
252 261 264 267 276 281 286 285 279 270 268 260 253 255 254 246 245 247 246 237 235 236 230 223 228 230 226 222 223 223 227 228 235 238 238 247 247 258 256 256 258 262 271
250 261 268 273 279 280 278 280 282 278 275 264 254 255 255 248 246 247 246 239 233 232 231 228 229 230 228 225 226 225 226 232 238 237 235 239 235 240 244 250 252 252 262
270 269 265 274 282 285 283 281 282 282 278 273 265 259 259 255 251 249 247 240 234 233 230 229 234 233 228 228 227 226 226 229 239 245 243 242 243 244 244 248 246 244 250
253 263 275 282 283 282 278 280 281 280 276 273 270 270 269 264 258 254 248 242 241 239 232 231 233 234 237 242 239 232 225 226 233 245 248 249 254 257 262 264 263 255 251
250 263 267 265 270 274 274 275 274 278 275 272 274 275 272 268 263 258 252 247 243 238 237 237 233 237 242 245 246 242 228 223 230 236 239 247 248 252 247 262 271 276 275
258 266 265 267 269 269 276 278 279 277 273 274 277 277 274 271 269 261 253 249 244 238 238 239 236 239 245 246 248 248 236 223 229 232 232 239 248 246 239 234 246 254 264
255 255 256 260 266 273 278 287 287 282 280 278 279 277 273 273 273 265 259 253 246 244 240 239 235 237 248 249 249 246 226 227 233 233 234 236 241 252 253 244 242 253 260
267 263 268 274 280 281 282 287 287 285 277 273 273 274 270 267 267 265 263 256 245 245 245 247 239 235 242 249 249 244 221 229 237 237 240 247 248 252 255 242 236 252 257
281 279 281 277 273 275 275 275 278 272 271 274 276 276 271 265 265 267 261 259 253 251 247 250 249 240 240 250 249 245 226 224 233 238 237 241 256 258 258 254 237 249 256
288 285 282 284 283 274 265 272 274 273 278 279 279 277 274 272 273 268 268 260 249 251 253 253 258 247 244 244 247 248 244 239 231 237 234 239 253 257 260 260 257 262 267
277 278 272 282 287 278 257 265 275 281 284 284 281 279 278 272 265 261 265 266 249 246 252 246 252 254 239 242 247 249 249 248 240 233 238 244 250 255 260 262 263 264 251
276 278 280 283 286 284 270 260 271 276 275 279 282 280 278 280 273 261 251 250 247 245 246 244 247 251 243 235 236 239 248 250 249 242 242 248 252 251 251 257 260 245 230
272 270 270 275 280 285 281 277 271 270 275 280 280 279 272 272 276 267 251 249 242 235 239 240 234 237 247 241 239 233 228 225 230 227 218 218 228 232 234 237 236 229 235
271 274 274 275 280 283 283 283 274 262 267 280 280 275 274 272 269 274 282 262 255 261 256 250 244 243 245 253 249 247 243 241 237 231 222 226 229 233 234 235 235 230 232